Regional Weather Roundup
Issued by NWS Cleveland, OH

Home | Current Version | Previous Version | Graphics & Text | Print | Product List | Glossary On
Versions: 1 2 3 4 5 6 7 8 9 10 11 12 13 14 15 16 17 18 19 20 21 22 23 24 25 26 27 28 29 30 31 32 33 34 35 36 37 38 39 40 41 42 43 44 45 46 47 48 49 50
000
ASUS41 KCLE 210010
RWRCLE
OHIO REGIONAL WEATHER ROUNDUP
NATIONAL WEATHER SERVICE CLEVELAND, OH
800 PM EDT SAT SEP 20 2014

NOTE: "FAIR" INDICATES FEW OR NO CLOUDS BELOW 12,000 FEET WITH NO
SIGNIFICANT WEATHER AND/OR OBSTRUCTIONS TO VISIBILITY.

OHZ001>008-015>018-024>027-034-035-043-044-210100-
   NORTHWEST OHIO

CITY           SKY/WX    TMP DP  RH WIND       PRES   REMARKS
DEFIANCE       MIX PCPN   1  50 100 SW9       29.89R WCI -14
FINDLAY        MOCLDY    76  60  57 SW10      29.89R
TOLEDO EXPRESS LGT RAIN  66  63  88 W16       29.88R
TOLEDO EXEC    RAIN      73  61  65 SW15G23   29.89R
LIMA           MOCLDY    76  61  59 SW10      29.91R
$$

OHZ009>014-019>023-028>033-038-089-210100-
   NORTHEAST OHIO

CITY           SKY/WX    TMP DP  RH WIND       PRES   REMARKS
CLE-HOPKINS    MOCLDY    74  58  57 S8        29.89R
CLE-LAKEFRONT  CLEAR     76  61  59 S9        29.85S
CUY CO. ARPT   PTCLDY    75  66  73 SW12      29.88S
LORAIN-ELYRIA  CLEAR     75  59  57 SW9       29.89R
ASHTABULA      CLEAR     70  61  73 S9        29.90S
AKRON-CANTON   PTCLDY    72  61  68 S10       29.92S
WOOSTER        PTCLDY    70  62  76 S7        29.92R
MANSFIELD      CLEAR     72  59  63 SW9       29.93R
YOUNGSTOWN     PTCLDY    71  61  70 S7        29.93R
$$

OHZ042-051>053-060>062-070>072-077>081-210100-
  SOUTHWEST OHIO

CITY           SKY/WX    TMP DP  RH WIND       PRES   REMARKS
CINC-COVINGTON MOCLDY    75  64  68 SW5       29.97R
CINC-LUNKEN    CLEAR     72  64  76 S5        29.96R
HAMILTON       CLEAR     71  65  81 CALM      29.95R
DAYTON         CLOUDY    76  64  66 SW9       29.95R
WRIGHT-PAT AFB PTCLDY    74  63  69 SW9       29.95R
DAYTON GENERAL PTCLDY    76  63  64 SW9       29.95R
WILMINGTON     CLEAR     71  61  70 SW8       29.97R
$$

OHZ036-037-039>041-045>050-054>059-063>069-073>076-082>088-210100-
  CENTRAL AND SOUTHEAST OHIO

CITY           SKY/WX    TMP DP  RH WIND       PRES   REMARKS
COLUMBUS       MOCLDY    79  60  52 SW9G17    29.93R
OSU AIRPORT    CLEAR     75  60  59 SW7       29.94R
BOLTON FIELD   CLEAR     69  62  78 SW8       29.95R
RICKENBACK AFB PTCLDY    73  61  65 SW6       29.94R
NEWARK         CLEAR     72  60  66 S6        29.93R
MARION         PTCLDY    74  60  61 SW12      29.91R
LANCASTER      CLEAR     75  61  61 S6        29.95R
ZANESVILLE     PTCLDY    73  61  65 S5        29.94S
NEW PHILLY     CLEAR     71  62  73 S6        29.94S
$$


USA.gov is the U.S. government's official web portal to all federal, state and local government web resources and services.